Location: Okie-Tex Star Party
(36.8978°N, 102.9520°W)
Time: 03:01:29
(UTC-05:00)

Amateur Radio Satellites - All Passes

Search period start: 01 May 2016 02:31
Search period end: 02 May 2016 02:31
Location: Okie-Tex Star Party, 36.8978°N, 102.9520°W

Satellite Date Start Highest point End Downlink Frequencies (MHz)
Time Altitude Azimuth
JAS-2 01 May 02:31:37 02:39:15 54° 99° (E) 02:46:50 435.910
ITUPSAT 1 01 May 02:51:52 02:56:19 41° 71° (ENE) 03:00:47 437.325
SWISSCUBE 01 May 03:02:12 03:06:53 61° 74° (ENE) 03:11:34 437.505
Cosmos 2499 01 May 03:16:35 03:23:36 59° 280° (W) 03:30:34 435.465 / 435.565
ITAMSAT 1 01 May 03:31:03 03:33:57 15° 92° (E) 03:36:51 435.822/435.867
Gurwin Techsat 1B 01 May 03:32:16 03:37:16 41° 99° (E) 03:42:15 435.225
BEESAT 01 May 03:35:38 03:40:21 66° 258° (WSW) 03:45:06 436.000
O/OREOS (USA 219) 01 May 03:38:37 03:41:31 17° 260° (W) 03:44:24 437.305
GONETS M04 01 May 03:42:07 03:49:12 26° 290° (WNW) 03:56:20
CUSAT 1 01 May 03:42:49 03:50:05 88° 81° (E) 03:58:11 437.405
Oscar 19 01 May 03:54:49 03:59:48 47° 288° (WNW) 04:04:44 437.125/150
PCSat 01 May 04:01:43 04:05:38 20° 254° (WSW) 04:09:31 145.827
DANDE 01 May 04:06:04 04:12:37 70° 81° (E) 04:20:38 436.750
JAS-2 01 May 04:17:13 04:23:48 32° 295° (WNW) 04:30:27 435.910
AO-7 01 May 04:19:04 04:24:53 20° 94° (E) 04:30:39 29.400- 29.500
MOZHAYETS 4 01 May 04:25:37 04:29:36 30° 70° (ENE) 04:33:34
ITUPSAT 1 01 May 04:31:04 04:34:17 18° 266° (W) 04:37:32 437.325
KKS-1 01 May 04:36:54 04:41:20 69° 75° (ENE) 04:45:49 437.445
RS-15 01 May 04:39:32 04:46:35 17° 10° (N) 04:53:44 29.354- 29.394
SWISSCUBE 01 May 04:43:14 04:45:01 12° 268° (W) 04:46:49 437.505
STARS 01 May 04:59:11 05:03:33 61° 74° (ENE) 05:07:57 437.465
ITAMSAT 1 01 May 05:08:40 05:13:45 57° 287° (WNW) 05:18:49 435.822/435.867
Gurwin Techsat 1B 01 May 05:12:50 05:16:55 23° 294° (WNW) 05:21:00 435.225
BEESAT 3 01 May 05:16:21 05:20:19 82° 57° (ENE) 05:24:15 437.485
BEESAT 2 01 May 05:19:45 05:23:39 49° 57° (ENE) 05:27:29 435.950
CUSAT 1 01 May 05:27:09 05:31:33 17° 275° (W) 05:36:10 437.405
DANDE 01 May 05:50:22 05:55:09 20° 271° (W) 06:00:31 436.750
HORYU 2 01 May 05:57:59 06:01:51 29° 97° (E) 06:05:41 437.375
MOZHAYETS 4 01 May 06:03:09 06:06:44 23° 265° (W) 06:10:21
CUBESAT XI-V 01 May 06:04:55 06:09:07 37° 72° (ENE) 06:13:21 437.345
AO-7 01 May 06:09:59 06:18:19 77° 290° (WNW) 06:26:37 29.400- 29.500
YUBILEINY 01 May 06:13:17 06:20:07 25° 69° (ENE) 06:26:55 435.215
AIST 2 01 May 06:35:31 06:38:53 23° 51° (NE) 06:42:14 435.215
STARS 01 May 06:39:33 06:40:16 10° 269° (W) 06:40:59 437.465
RS-15 01 May 06:53:07 07:04:16 38° 43° (NE) 07:15:23 29.354- 29.394
Cosmos 2491 01 May 06:54:01 07:00:39 25° 82° (E) 07:07:17 435.465 / 435.565
BEESAT 2 01 May 06:59:35 07:01:01 12° 252° (WSW) 07:02:28 435.950
BRITE-PL 01 May 07:02:52 07:06:44 18° 91° (E) 07:10:31 437.365/2234.400
Cubesat XI-IV 01 May 07:07:31 07:11:03 18° 93° (E) 07:14:33 437.490
Cosmos 2504 01 May 07:08:48 07:10:37 11° 64° (ENE) 07:12:28 435.465 / 435.565
NOAA 15 01 May 07:11:46 07:16:27 31° 97° (E) 07:21:06 137.62
HORYU 2 01 May 07:34:49 07:38:14 22° 292° (WNW) 07:41:37 437.375
SO-50 01 May 07:40:00 07:43:39 21° 110° (ESE) 07:47:20 436.795
CUBESAT XI-V 01 May 07:43:25 07:46:36 18° 267° (W) 07:49:49 437.345
NOAA 18 01 May 07:58:56 08:04:25 76° 104° (ESE) 08:09:51 137.9125
ISS 01 May 07:59:15 08:01:42 20° 130° (SE) 08:04:09 145.825
CUTE-I 01 May 08:02:18 08:07:35 63° 102° (ESE) 08:12:50 437.470
AO-7 01 May 08:05:14 08:09:44 16° 309° (NW) 08:14:13 29.400- 29.500
YUBILEINY 01 May 08:08:56 08:17:30 65° 268° (W) 08:26:04 435.215
STRAND 1 01 May 08:13:04 08:18:09 75° 75° (ENE) 08:23:15 437.568
AIST 2 01 May 08:13:46 08:17:21 29° 247° (WSW) 08:20:55 435.215
M-CUBED/EXP-1 PRIME 01 May 08:14:46 08:17:42 20° 99° (E) 08:20:28 437.505
PRISM 01 May 08:21:27 08:23:49 15° 66° (ENE) 08:26:12 437.425
GOMX 1 01 May 08:23:25 08:28:46 52° 99° (E) 08:33:50 467.674
DOVE 4 01 May 08:29:34 08:33:57 28° 94° (E) 08:38:07 437.250
LilacSat-2 01 May 08:32:58 08:36:39 48° 285° (WNW) 08:40:17 437.200
AUBIESAT-1 01 May 08:34:44 08:38:07 29° 101° (E) 08:41:17 437.475
BRITE-PL 01 May 08:39:54 08:45:28 56° 287° (WNW) 08:50:56 437.365/2234.400
HO-68 01 May 08:41:50 08:46:11 17° 92° (E) 08:50:30 435.675
Cubesat XI-IV 01 May 08:46:14 08:51:22 50° 288° (WNW) 08:56:29 437.490
Cosmos 2491 01 May 08:47:57 08:56:41 65° 280° (W) 09:05:29 435.465 / 435.565
NOAA 15 01 May 08:51:32 08:56:07 30° 292° (WNW) 09:00:41 137.62
CUTE 1.7 + AOD 2 01 May 08:54:13 08:55:48 12° 92° (E) 08:57:23 437.475
Cosmos 2504 01 May 08:57:34 09:05:11 73° 82° (E) 09:13:20 435.465 / 435.565
RS-15 01 May 09:05:30 09:17:43 71° 246° (WSW) 09:29:49 29.354- 29.394
SO-50 01 May 09:19:11 09:23:50 43° 305° (NW) 09:28:32 436.795
SEEDS 01 May 09:23:33 09:26:36 19° 94° (E) 09:29:38 437.485
CINEMA 3 01 May 09:26:30 09:30:38 31° 96° (E) 09:34:34 145.822/145.860
COMPASS 1 01 May 09:30:38 09:33:18 16° 93° (E) 09:35:58 437.405
ISS 01 May 09:34:57 09:37:59 35° 325° (NW) 09:41:02 145.825
NOAA 18 01 May 09:41:47 09:44:22 14° 299° (WNW) 09:46:57 137.9125
CUTE-I 01 May 09:44:01 09:47:03 16° 297° (WNW) 09:50:06 437.470
M-CUBED/EXP-1 PRIME 01 May 09:49:01 09:52:14 24° 296° (WNW) 09:55:14 437.505
CANX-2 01 May 09:54:32 09:58:45 77° 101° (E) 10:02:58 2200.000
PRISM 01 May 09:55:01 09:58:48 37° 261° (W) 10:02:37 437.425
STRAND 1 01 May 09:56:46 09:57:49 11° 270° (W) 09:58:51 437.568
AAUSAT CUBESAT 2 01 May 10:02:25 10:06:07 31° 97° (E) 10:09:48 437.432
GOMX 1 01 May 10:02:35 10:06:19 19° 295° (WNW) 10:09:58 467.674
DOVE 4 01 May 10:07:07 10:11:33 30° 291° (WNW) 10:15:47 437.250
Oscar 11 01 May 10:07:49 10:10:05 14° 92° (E) 10:12:21 145.826/435.025
AUBIESAT-1 01 May 10:09:47 10:12:21 17° 299° (WNW) 10:14:49 437.475
TIGRISAT 01 May 10:10:44 10:11:57 11° 64° (ENE) 10:13:10 435.000
FUNcube-1 01 May 10:16:55 10:19:04 14° 92° (E) 10:21:12 145.935
UWE-3 01 May 10:22:16 10:25:53 26° 96° (E) 10:29:24 435.000/436.395/437.385
CUBEBUG 2 01 May 10:25:37 10:29:45 43° 98° (E) 10:33:45 437.445
HO-68 01 May 10:27:21 10:34:31 77° 287° (WNW) 10:41:38 435.675
CUTE 1.7 + AOD 2 01 May 10:27:49 10:31:53 48° 286° (WNW) 10:35:57 437.475
ANTELSAT 01 May 10:32:25 10:35:50 20° 68° (ENE) 10:39:12 437.575/2403.000
Cosmos 2504 01 May 10:52:51 10:57:47 19° 278° (W) 11:02:54 435.465 / 435.565
Cosmos 2491 01 May 10:53:54 10:55:25 10° 301° (WNW) 10:56:56 435.465 / 435.565
ZACube-1 01 May 10:56:39 11:00:42 44° 99° (E) 11:04:39 437.345
SEEDS 01 May 10:58:41 11:02:18 29° 289° (WNW) 11:05:56 437.485
CINEMA 3 01 May 11:04:01 11:07:32 22° 293° (WNW) 11:10:56 145.822/145.860
COMPASS 1 01 May 11:05:11 11:08:56 34° 288° (WNW) 11:12:42 437.405
RS-15 01 May 11:22:41 11:27:54 14° 265° (W) 11:33:07 29.354- 29.394
UNISAT 6 01 May 11:25:12 11:29:52 77° 77° (ENE) 11:34:30 437.425
DELFI C3 01 May 11:30:03 11:34:01 64° 101° (E) 11:37:58 145.870
PHONESAT 2.4 01 May 11:33:04 11:36:04 42° 153° (SSE) 11:39:04 2401.200-2431.200
NANOSAT C BR1 01 May 11:33:58 11:36:37 16° 67° (ENE) 11:39:16 145.865
AAUSAT CUBESAT 2 01 May 11:38:30 11:41:21 18° 292° (WNW) 11:44:13 437.432
Oscar 11 01 May 11:42:20 11:46:24 42° 287° (WNW) 11:50:28 145.826/435.025
TIGRISAT 01 May 11:43:22 11:48:02 71° 258° (WSW) 11:52:40 435.000
FUNcube-1 01 May 11:51:35 11:55:31 40° 287° (WNW) 11:59:22 145.935
GONETS M04 01 May 11:57:11 12:04:19 27° 70° (ENE) 12:11:21
UWE-3 01 May 11:58:56 12:02:11 22° 291° (WNW) 12:05:24 435.000/436.395/437.385
CUBEBUG 2 01 May 12:03:39 12:05:56 14° 295° (WNW) 12:08:13 437.445
ANTELSAT 01 May 12:07:59 12:12:17 36° 262° (W) 12:16:32 437.575/2403.000
HUMSAT D 01 May 12:14:48 12:18:54 88° 273° (W) 12:22:58 437.325/437.525
HO-68 01 May 12:17:54 12:21:03 13° 305° (NW) 12:24:12 435.675
QB50P2 01 May 12:23:18 12:27:33 67° 75° (ENE) 12:31:49 145.880/145.840
CUBEBUG 1 01 May 12:24:56 12:27:10 14° 92° (E) 12:29:24 437.445
DUCHIFAT 1 01 May 12:25:23 12:29:34 60° 75° (ENE) 12:33:48 145.980
POLYITAN 1 01 May 12:25:25 12:29:41 68° 75° (ENE) 12:33:58 437.675
AIST 1 01 May 12:27:46 12:31:42 31° 77° (ENE) 12:35:38
POPSAT HIP 1 01 May 12:28:29 12:32:45 72° 76° (ENE) 12:37:02 437.405
QB50P1 01 May 12:31:53 12:36:09 81° 76° (ENE) 12:40:27 145.935-145.965
ZACube-1 01 May 12:34:30 12:36:33 13° 294° (WNW) 12:38:35 437.345
JAS-2 01 May 12:44:09 12:47:43 16° 58° (ENE) 12:51:29 435.910
VELOX 1 01 May 12:46:32 12:50:12 25° 96° (E) 12:53:51 145.980
DX 1 01 May 12:49:23 12:52:54 23° 96° (E) 12:56:23 434.975-435.025
UKube-1 01 May 12:58:57 13:02:28 24° 96° (E) 13:05:58 .
AO-85 01 May 13:00:58 13:04:46 20° 108° (ESE) 13:08:35 145.980
NANOSAT C BR1 01 May 13:08:02 13:12:00 39° 261° (W) 13:16:02 145.865
Cosmos 2499 01 May 13:08:50 13:16:04 41° 77° (ENE) 13:23:48 435.465 / 435.565
PHONESAT 2.4 01 May 13:09:50 13:12:55 51° 349° (N) 13:16:01 2401.200-2431.200
BUGSAT 1 01 May 13:14:14 13:18:27 76° 258° (WSW) 13:22:43 437.445
50 SAT 01 May 13:15:37 13:19:15 67° 101° (ESE) 13:22:54 437.505
AISAT 01 May 13:17:48 13:22:15 60° 101° (E) 13:26:39 437.250
ESTCUBE 1 01 May 13:29:37 13:34:09 74° 285° (WNW) 13:38:40 437.505/2401.250
Oscar 19 01 May 13:31:21 13:35:16 22° 66° (ENE) 13:39:12 437.125/150
SPROUT 01 May 13:31:45 13:35:28 28° 96° (E) 13:39:11 437.525
GONETS M04 01 May 13:53:04 14:01:37 60° 269° (W) 14:10:05
CUBEBUG 1 01 May 13:59:25 14:03:42 47° 286° (WNW) 14:07:55 437.445
AIST 1 01 May 14:05:59 14:09:02 19° 273° (W) 14:12:05
TISAT 1 01 May 14:12:07 14:15:29 23° 96° (E) 14:18:49 437.305
VELOX 1 01 May 14:22:51 14:26:35 27° 291° (WNW) 14:30:19 145.980
DX 1 01 May 14:25:18 14:29:02 27° 291° (WNW) 14:32:44 434.975-435.025
JAS-2 01 May 14:26:02 14:31:47 75° 258° (WSW) 14:38:22 435.910
ISS 01 May 14:28:46 14:30:46 15° 25° (NNE) 14:32:45 145.825
UKube-1 01 May 14:34:49 14:38:26 26° 291° (WNW) 14:42:02 .
AO-85 01 May 14:39:30 14:44:51 56° 303° (WNW) 14:50:12 145.980
ITAMSAT 1 01 May 14:46:44 14:50:22 20° 65° (ENE) 14:54:00 435.822/435.867
PHONESAT 2.4 01 May 14:47:02 14:50:05 43° 6° (N) 14:53:08 2401.200-2431.200
Gurwin Techsat 1B 01 May 14:50:59 14:56:07 52° 72° (ENE) 15:01:16 435.225
AISAT 01 May 14:56:28 14:58:10 12° 296° (WNW) 14:59:52 437.250
ITUPSAT 1 01 May 14:56:31 14:58:29 12° 92° (E) 15:00:28 437.325
Cosmos 2499 01 May 15:02:06 15:09:00 36° 272° (W) 15:16:21 435.465 / 435.565
SWISSCUBE 01 May 15:05:40 15:08:57 18° 94° (E) 15:12:14 437.505
SPROUT 01 May 15:07:59 15:11:15 21° 291° (WNW) 15:14:30 437.525
Oscar 19 01 May 15:09:27 15:14:17 40° 261° (W) 15:19:10 437.125/150
AO-7 01 May 15:16:00 15:22:22 25° 57° (ENE) 15:28:43 29.400- 29.500
BEESAT 01 May 15:38:10 15:42:34 37° 98° (E) 15:46:58 436.000
TISAT 1 01 May 15:47:34 15:51:04 25° 290° (WNW) 15:54:32 437.305
ISS 01 May 16:04:19 16:07:35 79° 222° (SW) 16:10:50 145.825
O/OREOS (USA 219) 01 May 16:07:41 16:12:15 72° 109° (ESE) 16:16:51 437.305
SO-50 01 May 16:14:13 16:16:17 13° 42° (NE) 16:18:19 436.795
PHONESAT 2.4 01 May 16:23:55 16:27:05 70° 201° (SSW) 16:30:14 2401.200-2431.200
ITAMSAT 1 01 May 16:24:29 16:29:27 46° 260° (W) 16:34:26 435.822/435.867
AO-85 01 May 16:26:01 16:26:30 10° 322° (NW) 16:26:59 145.980
KKS-1 01 May 16:31:30 16:34:12 16° 93° (E) 16:36:52 437.445
ITUPSAT 1 01 May 16:31:58 16:36:40 59° 286° (WNW) 16:41:21 437.325
Gurwin Techsat 1B 01 May 16:32:55 16:36:20 17° 267° (W) 16:39:45 435.225
SWISSCUBE 01 May 16:42:26 16:46:52 40° 289° (WNW) 16:51:18 437.505
CUSAT 1 01 May 16:46:13 16:49:22 69° 282° (WNW) 16:53:27 437.405
STARS 01 May 16:52:43 16:54:48 13° 92° (E) 16:56:53 437.465
HORYU 2 01 May 16:54:11 16:57:36 22° 68° (ENE) 17:01:00 437.375
PCSat 01 May 16:56:21 17:01:43 72° 115° (ESE) 17:07:09 145.827
AO-7 01 May 17:06:10 17:14:24 70° 255° (WSW) 17:22:41 29.400- 29.500
DANDE 01 May 17:16:15 17:18:56 88° 276° (W) 17:22:11 436.750
BEESAT 01 May 17:16:35 17:20:05 21° 293° (WNW) 17:23:35 436.000
NOAA 18 01 May 17:45:36 17:48:30 15° 61° (ENE) 17:51:23 137.9125
O/OREOS (USA 219) 01 May 17:50:40 17:52:10 11° 305° (NW) 17:53:40 437.305
SO-50 01 May 17:52:44 17:57:27 87° 238° (WSW) 18:01:59 436.795
MOZHAYETS 4 01 May 17:59:07 18:03:42 83° 284° (WNW) 18:08:17
PHONESAT 2.4 01 May 18:02:03 18:03:33 13° 216° (SW) 18:05:03 2401.200-2431.200
CUBESAT XI-V 01 May 18:06:00 18:07:19 11° 90° (E) 18:08:40 437.345
KKS-1 01 May 18:06:43 18:10:55 42° 288° (WNW) 18:15:06 437.445
BRITE-PL 01 May 18:12:30 18:15:02 14° 62° (ENE) 18:17:38 437.365/2234.400
Cubesat XI-IV 01 May 18:27:09 18:31:24 25° 66° (ENE) 18:35:38 437.490
STARS 01 May 18:27:10 18:31:24 48° 287° (WNW) 18:35:37 437.465
NOAA 15 01 May 18:29:32 18:34:23 39° 70° (ENE) 18:39:16 137.62
HORYU 2 01 May 18:29:59 18:33:57 31° 262° (W) 18:37:56 437.375
PCSat 01 May 18:42:14 18:45:40 17° 312° (NW) 18:49:08 145.827
M-CUBED/EXP-1 PRIME 01 May 18:58:06 19:01:54 25° 64° (ENE) 19:05:42 437.505
Cosmos 2491 01 May 19:01:13 19:09:55 59° 79° (E) 19:18:30 435.465 / 435.565
BEESAT 3 01 May 19:05:37 19:08:45 23° 112° (ESE) 19:11:54 437.485
AO-7 01 May 19:08:09 19:08:25 10° 271° (W) 19:08:42 29.400- 29.500
BEESAT 2 01 May 19:11:12 19:13:30 15° 109° (ESE) 19:15:49 435.950
YUBILEINY 01 May 19:11:38 19:18:55 31° 84° (E) 19:26:09 435.215
LilacSat-2 01 May 19:12:14 19:16:02 54° 75° (ENE) 19:19:50 437.200
HO-68 01 May 19:12:16 19:13:36 11° 52° (NE) 19:14:57 435.675
AUBIESAT-1 01 May 19:17:38 19:21:45 32° 66° (ENE) 19:25:50 437.475
CUTE-I 01 May 19:21:48 19:27:08 82° 75° (ENE) 19:32:28 437.470
NOAA 18 01 May 19:22:59 19:28:30 72° 257° (WSW) 19:34:01 137.9125
JUGNU 01 May 19:24:19 19:25:54 11° 169° (S) 19:27:29 437.505
GOMX 1 01 May 19:28:47 19:33:24 41° 71° (ENE) 19:38:19 467.674
DOVE 4 01 May 19:32:28 19:36:26 23° 67° (ENE) 19:40:30 437.250
CUBESAT XI-V 01 May 19:40:26 19:45:05 64° 285° (WNW) 19:49:44 437.345
BRITE-PL 01 May 19:48:13 19:52:49 60° 260° (W) 19:57:53 437.365/2234.400
Cubesat XI-IV 01 May 20:06:17 20:11:13 38° 262° (W) 20:16:10 437.490
NOAA 15 01 May 20:10:11 20:14:15 23° 265° (W) 20:18:21 137.62
SEEDS 01 May 20:15:21 20:16:19 11° 65° (ENE) 20:17:16 437.485
CINEMA 3 01 May 20:25:23 20:29:28 26° 69° (ENE) 20:33:34 145.822/145.860
STRAND 1 01 May 20:26:16 20:30:45 30° 97° (E) 20:35:12 437.568
M-CUBED/EXP-1 PRIME 01 May 20:31:58 20:36:13 33° 258° (WSW) 20:40:30 437.505
BEESAT 3 01 May 20:43:00 20:46:20 26° 307° (NW) 20:49:41 437.485
CANX-2 01 May 20:45:00 20:48:55 39° 73° (ENE) 20:52:51 2200.000
BEESAT 2 01 May 20:47:16 20:51:01 39° 305° (NW) 20:54:47 435.950
AAUSAT CUBESAT 2 01 May 20:51:31 20:54:04 16° 68° (ENE) 20:56:37 437.432
AUBIESAT-1 01 May 20:52:22 20:56:10 25° 260° (W) 20:59:57 437.475
HO-68 01 May 20:52:53 20:59:55 64° 70° (ENE) 21:06:59 435.675
Cosmos 2491 01 May 20:59:07 21:06:05 27° 277° (W) 21:13:01 435.465 / 435.565
YUBILEINY 01 May 21:06:46 21:15:13 52° 282° (WNW) 21:23:41 435.215
CUTE-I 01 May 21:07:05 21:07:44 10° 270° (W) 21:08:23 437.470
GOMX 1 01 May 21:08:03 21:11:39 20° 268° (W) 21:15:27 467.674
DOVE 4 01 May 21:09:09 21:13:48 38° 263° (W) 21:18:41 437.250
JUGNU 01 May 21:10:56 21:14:04 15° 179° (S) 21:17:14 437.505
UWE-3 01 May 21:17:13 21:20:30 19° 68° (ENE) 21:23:46 435.000/436.395/437.385
RS-15 01 May 21:17:15 21:25:09 23° 100° (E) 21:33:16 29.354- 29.394
CUTE 1.7 + AOD 2 01 May 21:17:42 21:21:55 85° 77° (ENE) 21:26:09 437.475
CUBEBUG 2 01 May 21:21:03 21:25:11 31° 71° (ENE) 21:29:18 437.445
Cosmos 2504 01 May 21:33:36 21:40:50 65° 93° (E) 21:47:54 435.465 / 435.565
AO-85 01 May 21:37:00 21:37:29 10° 38° (NE) 21:37:57 145.980
PRISM 01 May 21:38:42 21:42:26 32° 98° (E) 21:46:11 437.425
SEEDS 01 May 21:47:23 21:51:29 58° 259° (W) 21:55:37 437.485
ZACube-1 01 May 21:50:03 21:53:57 29° 71° (ENE) 21:57:48 437.345
COMPASS 1 01 May 21:53:01 21:57:07 71° 259° (WSW) 22:01:15 437.405
CINEMA 3 01 May 22:01:55 22:06:23 33° 264° (W) 22:10:55 145.822/145.860
STRAND 1 01 May 22:05:29 22:09:48 28° 292° (WNW) 22:14:07 437.568
AIST 2 01 May 22:08:20 22:12:27 82° 299° (WNW) 22:16:36 435.215
SRMSAT 01 May 22:08:36 22:11:15 13° 172° (S) 22:13:55 437.500
DELFI C3 01 May 22:14:15 22:17:33 26° 71° (ENE) 22:20:51 145.870
CANX-2 01 May 22:22:30 22:24:55 15° 267° (W) 22:27:20 2200.000
AAUSAT CUBESAT 2 01 May 22:25:29 22:29:15 35° 262° (W) 22:33:03 437.432
Oscar 11 01 May 22:34:11 22:38:30 77° 258° (WSW) 22:42:50 145.826/435.025
HO-68 01 May 22:42:51 22:48:03 21° 266° (W) 22:53:17 435.675
FUNcube-1 01 May 22:43:50 22:48:22 74° 259° (WSW) 22:52:51 145.935
UWE-3 01 May 22:52:21 22:56:40 38° 262° (W) 23:00:58 435.000/436.395/437.385
CUBEBUG 2 01 May 22:57:54 23:01:45 24° 265° (W) 23:05:36 437.445
JUGNU 01 May 23:00:03 23:02:16 12° 189° (S) 23:04:29 437.505
HUMSAT D 01 May 23:03:32 23:07:35 45° 74° (ENE) 23:11:36 437.325/437.525
AO-85 01 May 23:14:13 23:18:58 72° 59° (ENE) 23:23:14 145.980
PRISM 01 May 23:14:36 23:17:31 19° 292° (WNW) 23:20:24 437.425
UNISAT 6 01 May 23:20:33 23:23:29 18° 94° (E) 23:26:23 437.425
RS-15 01 May 23:24:42 23:35:57 84° 300° (WNW) 23:47:55 29.354- 29.394
ZACube-1 01 May 23:26:31 23:30:11 24° 265° (W) 23:33:49 437.345
Cosmos 2504 01 May 23:29:44 23:34:44 19° 291° (WNW) 23:39:41 435.465 / 435.565
TIGRISAT 01 May 23:37:55 23:41:34 26° 96° (E) 23:45:09 435.000
VELOX 1 01 May 23:42:23 23:45:17 17° 66° (ENE) 23:48:13 145.980
DX 1 01 May 23:43:34 23:46:14 16° 66° (ENE) 23:48:53 434.975-435.025
DELFI C3 01 May 23:49:33 23:52:24 19° 265° (W) 23:55:15 145.870
UKube-1 01 May 23:52:11 23:54:49 16° 66° (ENE) 23:57:28 .
50 SAT 01 May 23:52:44 23:55:33 21° 70° (ENE) 23:58:21 437.505
SRMSAT 01 May 23:56:26 23:59:36 15° 183° (S) 00:02:47 437.500
ANTELSAT 02 May 00:01:47 00:06:02 54° 100° (E) 00:10:12 437.575/2403.000
QB50P2 02 May 00:12:29 00:14:23 13° 92° (E) 00:16:16 145.880/145.840
AISAT 02 May 00:12:53 00:17:00 39° 72° (ENE) 00:21:10 437.250
DUCHIFAT 1 02 May 00:14:24 00:15:33 11° 91° (E) 00:16:43 145.980
POLYITAN 1 02 May 00:14:35 00:16:32 13° 92° (E) 00:18:28 437.675
POPSAT HIP 1 02 May 00:17:19 00:19:28 14° 92° (E) 00:21:36 437.405
QB50P1 02 May 00:20:23 00:22:52 15° 93° (E) 00:25:19 145.935-145.965
SPROUT 02 May 00:23:55 00:26:46 17° 67° (ENE) 00:29:38 437.525
ESTCUBE 1 02 May 00:26:35 00:31:02 76° 75° (ENE) 00:35:32 437.505/2401.250
HUMSAT D 02 May 00:41:30 00:43:24 13° 268° (W) 00:45:18 437.325/437.525
CUBEBUG 1 02 May 00:52:34 00:56:55 78° 258° (WSW) 01:01:21 437.445
NANOSAT C BR1 02 May 00:54:38 00:58:34 37° 98° (E) 01:02:27 145.865
AIST 1 02 May 00:55:18 00:58:29 20° 88° (E) 01:01:41
GONETS M04 02 May 00:55:21 01:02:57 34° 85° (E) 01:10:31
UNISAT 6 02 May 00:56:23 01:00:17 33° 289° (WNW) 01:04:07 437.425
BUGSAT 1 02 May 00:59:29 01:02:22 18° 94° (E) 01:05:14 437.445
TISAT 1 02 May 01:02:48 01:04:58 14° 66° (ENE) 01:07:08 437.305
TIGRISAT 02 May 01:14:44 01:18:07 23° 291° (WNW) 01:21:27 435.000
VELOX 1 02 May 01:17:18 01:21:26 39° 262° (W) 01:25:36 145.980
DX 1 02 May 01:17:56 01:22:03 41° 261° (W) 01:26:12 434.975-435.025
UKube-1 02 May 01:26:27 01:30:31 40° 261° (W) 01:34:36 .
50 SAT 02 May 01:26:30 01:29:15 20° 264° (W) 01:31:59 437.505
JAS-2 02 May 01:38:05 01:43:52 22° 91° (E) 01:49:35 435.910
CUSAT 1 02 May 01:40:30 01:43:26 12° 65° (ENE) 01:46:28 437.405
ANTELSAT 02 May 01:40:36 01:42:13 12° 296° (WNW) 01:43:50 437.575/2403.000
RS-15 02 May 01:41:06 01:50:27 27° 326° (NNW) 02:00:15 29.354- 29.394
Cosmos 2499 02 May 01:44:07 01:50:14 32° 87° (E) 01:56:19 435.465 / 435.565
QB50P2 02 May 01:46:21 01:50:25 45° 286° (WNW) 01:54:26 145.880/145.840
PCSat 02 May 01:46:45 01:51:43 35° 56° (NE) 01:56:39 145.827
SRMSAT 02 May 01:47:19 01:47:56 10° 193° (SSW) 01:48:33 437.500
DUCHIFAT 1 02 May 01:47:27 01:51:33 52° 286° (WNW) 01:55:37 145.980
POLYITAN 1 02 May 01:48:31 01:52:33 44° 287° (WNW) 01:56:33 437.675
AISAT 02 May 01:50:50 01:53:37 16° 266° (W) 01:56:27 437.250
POPSAT HIP 1 02 May 01:51:26 01:55:27 42° 287° (WNW) 01:59:25 437.405
QB50P1 02 May 01:54:50 01:58:46 38° 288° (WNW) 02:02:40 145.935-145.965
SPROUT 02 May 01:58:26 02:02:25 36° 262° (W) 02:06:26 437.525
ITUPSAT 1 02 May 02:01:48 02:03:41 12° 63° (ENE) 02:05:34 437.325
SWISSCUBE 02 May 02:10:28 02:13:32 17° 65° (ENE) 02:16:36 437.505
O/OREOS (USA 219) 02 May 02:20:03 02:24:36 88° 249° (WSW) 02:29:04 437.305
